Weather History for Leesburg, FL

Change the Weather History Date:

Sunday, November 14, 2010

  Actual Average Record
Temperature  
Mean Temperature 63 °F -  
Max Temperature 75 °F 75 °F 86 °F (2008)
Min Temperature 51 °F 52 °F 33 °F (1963)
Degree Days  
Heating Degree Days 2    
Growing Degree Days 13 (Base 50)    
Moisture  
Dew Point 51 °F    
Average Humidity 77    
Maximum Humidity 100    
Minimum Humidity 33    
Precipitation  
Precipitation 0.00 in - - ()
Sea Level Pressure  
Sea Level Pressure 30.07 in    
Wind  
Wind Speed 1 mph (ENE)    
Max Wind Speed 7 mph    
Max Gust Speed -    
Visibility 7 miles    
Events Fog    
Averages and records for this station are not official NWS values.
T = Trace of Precipitation, MM = Missing Value Source: NWS Daily Summary

Daily Weather History Graph

Daily Weather History Graph

Search for Another Location

Airport:

Trip Planner

Search our weather history database for the weather conditions in past years. The results will help you decide how hot, cold, wet, or windy it might be!

Date:

Astronomy

Nov. 14, 2010 Rise Set
Actual Time 6:49 AM EST 5:33 PM EST
Civil Twilight 6:24 AM EST 5:58 PM EST
Nautical Twilight 5:55 AM EST 6:27 PM EST
Astronomical Twilight 5:27 AM EST 6:55 PM EST
Moon 1:22 PM EST (11/14) 12:28 AM EST (11/14)
Length of Visible Light 11h 34m
Length of Day
10h 44m
First Quarter, 60% of the Moon is Illuminated
Nov 14
First Quarter
Nov 21
Full
Nov 28
Last Quarter
Dec 5
New
Dec 13
First Quarter

Hourly Weather History & Observations

Time (EST) Temp. Dew Point Humidity Pressure Visibility Wind Dir Wind Speed Gust Speed Precip Events Conditions
12:53 AM 55.9 °F 53.1 °F 90% 30.11 in 10.0 mi Calm Calm - N/A   Clear
2:53 AM 53.1 °F 51.1 °F 93% 30.07 in 8.0 mi Calm Calm - N/A   Clear
3:03 AM 53.6 °F 51.8 °F 94% 30.07 in 1.5 mi Calm Calm - N/A   Clear
3:07 AM 51.8 °F 51.8 °F 100% 30.07 in 0.5 mi Calm Calm - N/A Fog Fog
3:19 AM 51.8 °F 50.0 °F 94% 30.08 in 2.5 mi Calm Calm - N/A   Clear
3:26 AM 53.6 °F 51.8 °F 94% 30.08 in 7.0 mi Calm Calm - N/A   Clear
3:53 AM 53.1 °F 50.0 °F 89% 30.08 in 7.0 mi Calm Calm - N/A   Clear
4:50 AM 53.6 °F 51.8 °F 94% 30.08 in 1.0 mi Calm Calm - N/A   Clear
4:53 AM 53.1 °F 52.0 °F 96% 30.08 in 1.2 mi Calm Calm - N/A   Clear
4:56 AM 53.6 °F 51.8 °F 94% 30.08 in 3.0 mi Calm Calm - N/A   Clear
5:25 AM 51.8 °F 48.2 °F 88% 30.08 in 1.8 mi Calm Calm - N/A   Clear
5:35 AM 51.8 °F 50.0 °F 94% 30.09 in 3.0 mi Calm Calm - N/A   Clear
5:53 AM 52.0 °F 50.0 °F 93% 30.09 in 2.0 mi Calm Calm - N/A   Clear
6:17 AM 51.8 °F 50.0 °F 94% 30.10 in 5.0 mi Calm Calm - N/A   Clear
6:53 AM 52.0 °F 50.0 °F 93% 30.10 in 7.0 mi NNW 3.5 mph - N/A   Clear
7:53 AM 54.0 °F 52.0 °F 93% 30.12 in 10.0 mi Calm Calm - N/A   Clear
8:53 AM 60.1 °F 54.0 °F 80% 30.13 in 10.0 mi Calm Calm - N/A   Clear
9:53 AM 68.0 °F 55.0 °F 63% 30.13 in 10.0 mi North 3.5 mph - N/A   Clear
10:53 AM 73.0 °F 48.9 °F 42% 30.12 in 10.0 mi NNW 6.9 mph - N/A   Clear
11:53 AM 73.0 °F 46.0 °F 38% 30.10 in 10.0 mi Variable 5.8 mph - N/A   Clear
12:53 PM 73.9 °F 46.9 °F 38% 30.06 in 10.0 mi Calm Calm - N/A   Clear
1:53 PM 75.0 °F 48.0 °F 38% 30.04 in 10.0 mi South 5.8 mph - N/A   Clear
2:53 PM 75.0 °F 44.1 °F 33% 30.03 in 10.0 mi Calm Calm - N/A   Clear
3:53 PM 75.0 °F 45.0 °F 34% 30.02 in 10.0 mi SE 4.6 mph - N/A   Clear
4:53 PM 73.0 °F 48.0 °F 41% 30.02 in 10.0 mi ESE 3.5 mph - N/A   Clear
5:53 PM 64.0 °F 51.1 °F 63% 30.02 in 10.0 mi Calm Calm - N/A   Clear
6:53 PM 61.0 °F 54.0 °F 78% 30.02 in 10.0 mi Calm Calm - N/A   Clear
7:53 PM 59.0 °F 53.1 °F 81% 30.03 in 10.0 mi Calm Calm - N/A   Clear
8:53 PM 61.0 °F 54.0 °F 78% 30.04 in 10.0 mi East 3.5 mph - N/A   Clear
9:53 PM 59.0 °F 54.0 °F 83% 30.05 in 10.0 mi Calm Calm - N/A   Clear
10:53 PM 57.9 °F 54.0 °F 87% 30.05 in 10.0 mi Calm Calm - N/A   Clear
11:53 PM 57.0 °F 54.0 °F 89% 30.05 in 10.0 mi Calm Calm - N/A   Clear